Weather reports worldwide

Advertisment
Spadeadam, United Kingdom (3224): temperature & dewpoint: 10.11.2018 04:00:00 - 16.11.2018 04:00:00 (GMT)Spadeadam, United Kingdom (3224): temperature -20cm: 10.11.2018 04:00:00 - 16.11.2018 04:00:00 (GMT)Spadeadam, United Kingdom (3224): wind speed & gusts: 10.11.2018 04:00:00 - 16.11.2018 04:00:00 (GMT)Spadeadam, United Kingdom (3224): wind direction: 10.11.2018 04:00:00 - 16.11.2018 04:00:00 (GMT)Spadeadam, United Kingdom (3224): reduced air pressure: 10.11.2018 04:00:00 - 16.11.2018 04:00:00 (GMT)Spadeadam, United Kingdom (3224): visibility: 10.11.2018 04:00:00 - 16.11.2018 04:00:00 (GMT)Spadeadam, United Kingdom (3224): precipitation: 10.11.2018 04:00:00 - 16.11.2018 04:00:00 (GMT)
Date & Time tt [°C] td [°C] tt -20cm [°C] ff [km/h] ff [kn] fx [km/h] fx [kn] dd ppp [hPa] vv [km] rr [mm]
16.11.2018 04:00:00 9,5 8,8 - 5 3 - - S 1021,1 7 0,0
16.11.2018 03:00:00 8,8 7,8 - 9 5 - - SSW 1020,7 6 0,0
16.11.2018 02:00:00 10,2 9,0 - 5 3 - - WSW 1020,5 8 0,0
16.11.2018 01:00:00 10,0 8,9 - 9 5 - - SW 1019,8 7 0,0
16.11.2018 00:00:00 9,7 8,6 - 11 6 - - SSW 1019,4 7 0,0
15.11.2018 23:00:00 8,9 7,8 - 13 7 - - S 1018,6 6 0,0
15.11.2018 22:00:00 9,4 7,9 - 22 12 - - SW 1018,3 10 0,0
15.11.2018 21:00:00 9,2 7,6 - 24 13 - - SSW 1017,8 12 0,0
15.11.2018 20:00:00 9,5 7,6 - 26 14 - - SSW 1017,3 18 0,0
15.11.2018 19:00:00 10,3 8,0 - 22 12 - - SW 1016,6 21 0,0
15.11.2018 18:00:00 10,2 8,0 - 26 14 - - S 1015,8 25 0,0
15.11.2018 17:00:00 10,0 7,8 - 21 11 - - SW 1015,7 19 0,0
15.11.2018 16:00:00 10,8 8,2 - 29 16 48 26 SSW 1015,5 30 0,0
15.11.2018 15:00:00 11,0 8,0 - 31 17 - - SSW 1015,5 30 0,0
15.11.2018 14:00:00 11,0 7,4 - 28 15 - - SSW 1015,2 45 0,0
15.11.2018 13:00:00 12,2 7,1 - 16 9 - - SSW 1015,0 45 0,0
15.11.2018 12:00:00 11,4 6,4 - 22 12 - - SSW 1015,4 50 0,0
15.11.2018 11:00:00 10,9 5,5 - 13 7 - - SSE 1015,6 45 0,0
15.11.2018 10:00:00 9,0 4,4 - 2 1 - - ENE 1016,5 50 0,0
15.11.2018 09:00:00 6,4 3,8 7,5 13 7 - - SW 1016,6 50 0,0
15.11.2018 08:00:00 3,8 2,8 - 5 3 - - NE 1016,9 50 0,0
15.11.2018 07:00:00 2,6 0,3 - 9 5 - - SSW 1016,9 45 0,0
15.11.2018 06:00:00 4,6 3,7 - 2 1 - - E 1016,7 50 0,0
15.11.2018 05:00:00 4,1 1,8 - 8 4 - - SW 1016,6 40 0,0
15.11.2018 04:00:00 5,6 4,4 - 13 7 - - S 1016,4 45 0,0
15.11.2018 03:00:00 5,4 3,8 - 9 5 - - SW 1016,0 40 0,0
15.11.2018 02:00:00 6,5 4,9 - 13 7 - - SW 1015,9 35 0,0
15.11.2018 01:00:00 7,1 5,8 - 21 11 - - SSW 1015,9 35 0,0
15.11.2018 00:00:00 8,4 6,4 - 21 11 - - SW 1015,7 45 0,0
14.11.2018 23:00:00 8,2 5,9 - 18 10 - - SW 1015,5 30 0,0
14.11.2018 22:00:00 9,3 6,6 - 34 18 - - SSW 1015,2 50 0,0
14.11.2018 21:00:00 9,5 6,3 - 11 6 - - S 1014,6 35 0,0
14.11.2018 20:00:00 9,4 6,9 - 15 8 - - SW 1014,7 30 0,0
14.11.2018 19:00:00 9,7 7,4 - 18 10 - - SSW 1014,6 30 0,0
14.11.2018 18:00:00 9,9 8,3 - 34 18 48 26 SW 1014,0 35 0,0
14.11.2018 17:00:00 10,2 8,4 - 31 17 63 34 SW 1013,4 45 0,0
14.11.2018 16:00:00 10,7 9,2 - 41 22 59 32 SW 1013,0 40 0,0
14.11.2018 15:00:00 11,3 9,6 - 41 22 55 30 WSW 1013,2 10 0,0
14.11.2018 14:00:00 11,4 9,9 - 35 19 50 27 SW 1013,2 10 0,0
14.11.2018 13:00:00 11,0 10,0 - 28 15 50 27 SSW 1013,3 10 0,2
14.11.2018 12:00:00 10,8 10,0 - 29 16 - - SSW 1013,0 10 0,0
14.11.2018 11:00:00 10,5 9,8 - 29 16 52 28 SW 1012,7 10 0,0
14.11.2018 10:00:00 10,2 9,8 - 35 19 57 31 SSW 1012,2 10 0,2
14.11.2018 09:00:00 9,7 9,1 7,2 34 18 54 29 SSW 1011,6 50 0,2
14.11.2018 08:00:00 9,2 8,5 - 39 21 57 31 SSW 1011,7 9 0,8
14.11.2018 07:00:00 8,7 8,1 - 34 18 46 25 SSW 1011,7 30 1,0
14.11.2018 06:00:00 8,5 7,8 - 26 14 - - SSW 1011,8 23 0,6
14.11.2018 05:00:00 8,2 7,6 - 22 12 - - S 1012,2 13 1,0
14.11.2018 04:00:00 8,7 7,2 - 31 17 - - S 1012,6 26 0,0
14.11.2018 03:00:00 8,6 7,5 - 29 16 - - SSW 1013,5 35 0,0
14.11.2018 02:00:00 8,8 7,0 - 26 14 - - SSW 1014,3 25 0,0
14.11.2018 01:00:00 8,4 6,7 - 34 18 52 28 SSW 1014,9 15 0,0
14.11.2018 00:00:00 8,3 6,6 - 31 17 46 25 SSW 1015,2 24 0,0
13.11.2018 23:00:00 8,3 6,6 - 31 17 - - SSW 1015,7 30 0,0
13.11.2018 22:00:00 8,4 6,9 - 26 14 - - SSW 1016,4 30 0,0
13.11.2018 21:00:00 8,2 7,2 - 21 11 - - SSW 1016,3 26 0,0
13.11.2018 20:00:00 7,6 6,5 - 13 7 - - SSW 1016,5 30 0,0
13.11.2018 19:00:00 7,4 5,7 - 21 11 - - SSW 1016,6 30 0,0
13.11.2018 18:00:00 6,9 5,3 - 15 8 - - SW 1016,7 35 0,0
13.11.2018 17:00:00 6,6 5,8 - 16 9 - - SW 1016,9 21 0,0
13.11.2018 16:00:00 7,7 6,3 - 22 12 50 27 WSW 1016,2 26 0,0
13.11.2018 15:00:00 8,4 6,4 - 35 19 50 27 WSW 1015,7 27 0,0
13.11.2018 14:00:00 8,0 6,4 - 35 19 52 28 WSW 1015,1 10 0,0
13.11.2018 13:00:00 8,1 6,3 - 35 19 54 29 WSW 1014,2 10 0,0
13.11.2018 12:00:00 7,7 6,4 - 34 18 55 30 WSW 1013,3 10 0,0
13.11.2018 11:00:00 7,3 6,1 - 37 20 65 35 W 1012,6 10 0,0
13.11.2018 10:00:00 7,3 6,2 - 41 22 63 34 WSW 1011,3 17 0,0
13.11.2018 09:00:00 7,1 6,2 7,0 42 23 61 33 WSW 1009,8 10 0,0
13.11.2018 08:00:00 7,3 6,4 - 41 22 59 32 WSW 1008,4 14 0,0
13.11.2018 07:00:00 7,3 6,7 - 41 22 57 31 WSW 1007,0 13 0,0
13.11.2018 06:00:00 7,3 6,9 - 39 21 61 33 WSW 1005,6 14 0,0
13.11.2018 05:00:00 7,2 6,9 - 34 18 48 26 WSW 1004,7 8 0,0
13.11.2018 04:00:00 7,1 7,0 - 28 15 - - WSW 1003,8 12 0,2
13.11.2018 03:00:00 6,9 6,8 - 28 15 - - WSW 1003,3 7 1,0
13.11.2018 02:00:00 6,3 6,0 - 22 12 - - SSW 1002,9 4,2 1,6
13.11.2018 01:00:00 6,3 5,8 - 21 11 - - SSW 1002,4 50 0,6
13.11.2018 00:00:00 6,6 5,9 - 28 15 46 25 SSW 1002,1 7 0,2
12.11.2018 23:00:00 6,6 5,3 - 34 18 - - SSW 1001,5 35 0,0
12.11.2018 22:00:00 6,4 5,3 - 28 15 - - S 1001,6 45 0,0
12.11.2018 21:00:00 6,2 5,0 - 22 12 50 27 S 1002,1 45 0,0
12.11.2018 20:00:00 6,9 6,0 - 24 13 48 26 SSW 1002,3 50 1,4
12.11.2018 19:00:00 7,2 6,3 - 26 14 - - S 1002,1 11 0,0
12.11.2018 18:00:00 7,6 6,7 - 31 17 - - S 1002,1 20 0,0
12.11.2018 17:00:00 6,6 5,6 - 28 15 - - S 1001,8 13 0,2
12.11.2018 16:00:00 6,2 5,2 - 24 13 - - S 1001,7 50 0,0
12.11.2018 15:00:00 6,6 5,8 - 24 13 - - SSW 1001,8 50 1,0
12.11.2018 14:00:00 7,1 6,5 - 22 12 - - SW 1001,8 8 2,0
12.11.2018 13:00:00 8,3 7,2 - 22 12 50 27 SSW 1001,4 9 0,0
12.11.2018 12:00:00 9,0 7,2 - 29 16 46 25 SSW 1001,5 22 0,0
12.11.2018 11:00:00 9,5 6,7 - 29 16 - - S 1001,4 10 0,0
12.11.2018 10:00:00 8,7 6,7 - 26 14 - - SSW 1001,3 24 0,2
12.11.2018 09:00:00 7,8 6,6 7,0 28 15 - - SSW 1001,2 10 0,0
12.11.2018 08:00:00 6,6 5,9 - 24 13 - - SSW 1001,0 22 0,0
12.11.2018 07:00:00 6,4 5,6 - 21 11 - - SSW 1000,6 30 0,0
12.11.2018 06:00:00 6,4 5,5 - 24 13 - - SSW 1000,2 30 0,0
12.11.2018 05:00:00 6,9 6,1 - 29 16 - - SSW 999,6 26 0,0
12.11.2018 04:00:00 7,2 6,3 - 34 18 48 26 S 999,3 25 0,0
12.11.2018 03:00:00 6,9 6,1 - 24 13 - - S 999,2 11 1,0
12.11.2018 02:00:00 7,0 6,1 - 21 11 - - SSW 999,0 40 1,2
12.11.2018 01:00:00 6,9 5,7 - 24 13 - - S 998,6 28 0,0
12.11.2018 00:00:00 6,6 5,5 - 28 15 46 25 S 998,2 50 0,0
11.11.2018 23:00:00 6,5 5,7 - 22 12 - - S 998,6 22 0,4
11.11.2018 22:00:00 6,4 5,3 - 29 16 - - SSW 998,5 6 0,8
11.11.2018 21:00:00 4,6 4,1 - 15 8 - - S 997,9 21 2,0
11.11.2018 20:00:00 6,1 5,5 - 18 10 - - SW 997,9 4,8 0,2
11.11.2018 19:00:00 4,1 3,0 - 15 8 - - S 996,7 45 0,0
11.11.2018 18:00:00 3,6 2,4 - 15 8 - - SW 996,0 50 0,0
11.11.2018 17:00:00 5,3 4,2 - 22 12 - - WSW 995,2 50 0,0
11.11.2018 16:00:00 6,6 4,8 - 26 14 - - WSW 994,1 45 0,0
11.11.2018 15:00:00 7,6 6,3 - 26 14 - - WSW 993,1 50 0,0
11.11.2018 14:00:00 7,2 6,4 - 22 12 - - SSW 992,4 5 0,2
11.11.2018 13:00:00 7,1 6,1 - 15 8 - - S 991,8 25 0,6
11.11.2018 12:00:00 7,1 5,8 - 5 3 - - SSE 991,6 30 0,0
11.11.2018 11:00:00 5,5 5,0 - 8 4 - - NE 991,6 12 0,0
11.11.2018 10:00:00 5,8 5,0 - 13 7 - - E 991,2 25 0,0
11.11.2018 09:00:00 6,0 4,8 7,2 5 3 - - SE 991,1 45 0,0
11.11.2018 08:00:00 5,8 4,7 - 5 3 - - SE 990,7 35 0,0
11.11.2018 07:00:00 5,7 5,0 - 15 8 - - S 990,3 25 0,0
11.11.2018 06:00:00 5,1 4,4 - 11 6 - - S 990,3 30 0,0
11.11.2018 05:00:00 5,5 4,5 - 13 7 - - SSE 990,1 24 0,0
11.11.2018 04:00:00 5,9 4,8 - 13 7 - - SE 989,9 29 0,0
11.11.2018 03:00:00 5,6 4,6 - 13 7 - - SSE 990,1 28 0,0
11.11.2018 02:00:00 6,1 5,4 - 16 9 - - S 990,1 19 0,0
11.11.2018 01:00:00 6,0 5,5 - 15 8 - - S 990,2 14 0,0
11.11.2018 00:00:00 6,3 5,7 - 15 8 - - SSW 990,0 23 0,0
10.11.2018 23:00:00 6,2 5,9 - 11 6 - - S 990,1 17 0,0
10.11.2018 22:00:00 5,5 5,2 - 5 3 - - SSE 989,9 17 0,0
10.11.2018 21:00:00 6,0 5,5 - 16 9 - - S 989,5 27 0,0
10.11.2018 20:00:00 6,1 5,3 - 13 7 - - SSE 989,4 50 0,0
10.11.2018 19:00:00 6,2 5,5 - 5 3 - - S 989,2 50 2,6
10.11.2018 18:00:00 7,8 6,3 - 22 12 - - SSE 988,6 30 0,0
10.11.2018 17:00:00 7,9 6,4 - 26 14 - - SSE 988,4 30 0,6
10.11.2018 16:00:00 7,9 6,7 - 21 11 - - SE 988,4 5 0,2
10.11.2018 15:00:00 8,7 6,0 - 18 10 - - SSE 988,5 20 0,0
10.11.2018 14:00:00 8,9 5,9 - 13 7 - - SSE 988,8 35 0,0
10.11.2018 13:00:00 9,0 6,7 - 16 9 - - S 988,7 29 0,0
10.11.2018 12:00:00 7,9 6,1 - 22 12 - - SSW 989,0 30 0,0
10.11.2018 11:00:00 8,5 7,2 - 24 13 - - SSW 988,5 29 0,0
10.11.2018 10:00:00 6,8 6,4 - 18 10 - - SSW 988,3 30 0,0
10.11.2018 09:00:00 6,7 6,2 7,5 26 14 - - SW 987,6 12 0,8
10.11.2018 08:00:00 6,4 5,5 - 24 13 - - SSW 987,1 35 0,4
10.11.2018 07:00:00 6,4 5,2 - 22 12 - - SW 986,1 40 0,2
10.11.2018 06:00:00 7,0 6,0 - 24 13 - - SSW 984,9 16 0,0
10.11.2018 05:00:00 6,4 5,7 - 18 10 - - S 984,9 14 0,0
10.11.2018 04:00:00 7,7 6,9 - 18 10 - - S 984,8 18 0,0

tt = temperature
td = dewpoint
tt -20cm = temperature -20cm
ff = wind speed
fx = gusts
dd = wind direction
ppp = reduced air pressure
vv = visibility
rr = precipitation

Next stations